Vorticity
5 5 5 4 4 5 6 6 6 6 6 7 6 7 7 7 7 6 6 6 6 5 5 6 6 7 9 11 12 11 11 11 11 10 9 8 7 7 7 7 6 5 5 6 7 7 6 6 6 7 7 6 6 6 6 6 6 7 6 4 5 5 1 -1 2 4 8 23 39 37 21 10 9 12 14 13 8 4 3 4 4 5 6 8 9
6 6 6 6 4 4 4 5 5 5 6 7 6 6 7 7 7 7 7 7 7 7 7 6 6 6 7 10 12 12 10 10 10 10 10 10 9 8 8 8 8 8 7 7 6 6 6 6 7 8 8 7 6 6 6 6 5 8 11 9 6 6 5 1 -1 2 3 9 25 39 36 21 9 8 12 14 14 11 6 4 4 4 4 5 7
7 7 7 7 6 5 4 4 4 5 5 7 7 6 7 7 7 8 9 9 9 9 8 8 7 6 6 8 10 12 12 11 10 9 9 10 11 10 9 9 8 8 9 8 7 6 5 6 7 9 10 11 10 8 6 5 4 6 10 14 11 7 7 6 2 1 2 4 9 24 38 35 21 10 7 10 14 15 13 8 5 5 4 3 4
5 6 5 5 6 6 6 7 6 7 7 7 8 8 8 8 8 9 9 10 10 10 10 9 8 8 8 8 8 10 11 11 10 10 11 10 11 11 12 11 10 9 8 8 8 7 7 7 8 9 10 12 13 11 8 6 5 5 8 12 14 11 7 6 5 3 2 3 4 9 22 35 36 25 13 7 8 11 15 14 10 7 6 5 4
7 7 7 7 8 8 8 8 7 7 8 8 8 8 8 9 9 9 9 10 10 11 10 10 9 9 9 9 9 9 9 10 11 11 11 11 10 11 13 13 12 10 8 9 9 8 9 9 10 10 11 13 15 15 12 9 8 7 6 8 13 15 12 7 6 5 3 3 4 4 7 18 32 36 30 18 10 7 8 12 14 12 11 8 5
8 8 9 9 9 8 8 8 8 8 9 9 8 8 8 9 9 9 9 9 10 10 10 10 10 10 10 9 8 8 8 9 11 11 11 10 11 12 13 13 12 11 10 10 10 11 11 10 10 10 11 12 14 15 14 11 10 8 7 7 9 14 16 13 8 5 4 4 4 5 4 5 13 25 32 32 25 17 10 7 8 10 13 14 12
10 11 12 11 10 9 8 8 9 9 9 9 9 9 9 10 9 9 9 9 10 10 10 10 10 9 9 9 8 8 8 8 10 11 10 10 12 14 13 12 12 13 13 13 13 13 11 11 11 12 13 13 12 14 14 12 10 8 8 9 10 10 12 15 13 8 6 5 4 5 5 3 4 8 16 24 29 30 26 19 12 7 6 8 11
14 14 14 13 12 11 10 10 10 10 10 9 10 10 10 10 9 9 8 8 9 9 10 10 10 9 9 9 9 8 7 8 10 11 11 12 14 13 11 11 13 14 15 14 13 12 12 12 13 14 14 14 13 12 11 9 8 8 8 8 8 8 8 10 12 12 9 6 5 6 6 4 3 3 4 9 15 21 26 29 29 24 18 13 9
11 11 11 10 10 10 9 9 9 9 9 8 8 8 8 7 7 7 7 7 8 8 9 10 11 12 12 11 11 9 8 9 10 11 14 15 14 11 10 11 14 15 14 13 12 12 12 12 13 13 12 12 10 9 8 9 10 10 11 10 8 8 9 8 9 11 11 8 5 5 7 7 5 4 3 3 5 7 10 15 20 25 27 28 25
8 8 8 8 8 7 6 6 7 7 6 6 6 6 6 6 6 6 8 8 8 8 9 10 11 12 13 14 13 12 10 9 10 13 17 16 12 9 9 12 14 14 13 12 11 11 12 12 11 11 11 11 11 10 10 10 11 11 12 13 12 11 11 10 10 10 12 11 8 4 5 8 8 5 4 3 3 3 5 5 7 10 13 18 24
8 7 7 8 7 5 4 4 5 6 7 7 7 6 6 7 8 8 9 8 8 8 7 8 8 9 11 13 14 14 13 10 11 15 18 16 11 8 8 11 13 12 11 10 10 9 8 9 8 8 8 8 9 9 8 7 7 8 9 10 11 12 13 13 12 11 11 12 12 7 4 6 8 7 4 3 3 2 2 3 4 6 7 8 11
7 6 6 7 7 5 4 2 2 4 6 8 8 8 8 8 8 9 9 9 8 7 7 6 5 6 8 11 13 15 14 12 13 17 17 14 11 9 8 9 9 8 7 6 6 5 4 4 4 5 5 5 6 6 6 6 5 5 6 7 8 9 11 12 13 12 12 11 13 13 9 5 5 6 6 4 3 2 2 2 2 3 5 7 9
5 5 5 5 5 5 5 3 3 3 4 6 7 8 8 8 8 8 8 8 7 7 6 5 4 4 5 8 11 13 13 13 13 15 13 12 12 11 9 8 8 6 5 4 3 3 4 3 3 4 5 5 6 6 6 6 6 6 6 6 6 6 8 10 12 13 12 11 11 13 13 11 7 5 5 6 4 1 2 4 3 3 5 7 8
5 5 6 6 6 6 6 5 5 5 5 6 6 7 8 8 8 8 8 8 8 7 7 6 6 5 4 5 7 9 10 10 10 10 9 10 11 10 9 9 9 7 5 4 3 4 4 4 3 3 4 5 6 7 7 6 5 6 6 7 7 6 5 7 10 13 15 14 12 11 13 15 13 8 5 5 4 1 -0 3 5 3 4 7 10
5 5 6 7 7 7 7 7 7 7 7 7 7 7 8 8 8 8 8 8 8 8 7 7 7 6 5 4 4 5 7 7 7 7 7 7 7 7 7 7 7 6 5 4 3 3 4 4 3 3 3 4 4 6 7 8 7 5 6 8 8 7 6 5 7 10 14 18 17 14 13 15 17 13 8 6 5 1 -2 1 5 3 3 6 9
4 4 6 8 8 9 9 9 9 8 8 8 7 7 7 7 7 7 7 7 7 8 8 8 8 8 7 6 5 5 5 5 6 6 6 6 5 4 4 4 4 4 3 3 4 3 2 3 3 3 4 4 4 5 5 6 7 7 6 7 9 8 7 6 6 7 11 17 21 19 16 16 18 17 12 8 6 3 -1 -1 2 2 2 5 7
5 5 7 8 8 9 10 10 10 9 8 7 6 6 6 6 6 6 6 5 5 4 5 6 6 6 6 5 5 6 5 5 6 6 6 6 6 5 4 4 4 5 5 5 4 4 4 3 3 4 5 5 5 6 5 5 6 7 8 8 9 9 8 7 7 7 9 14 19 21 19 19 21 21 16 12 9 4 -0 -1 1 2 2 2 2
4 4 5 5 5 7 8 9 10 10 10 8 7 6 7 7 7 6 6 6 5 4 6 6 5 7 8 7 6 6 6 6 6 5 5 5 5 5 6 6 6 6 5 5 6 6 6 5 5 7 8 7 7 8 7 5 5 6 8 8 9 9 9 8 7 8 11 15 18 20 18 20 24 22 18 15 11 7 1 -2 1 4 1 -0 -0
2 1 3 4 6 7 6 7 9 10 11 11 10 8 7 7 8 7 6 6 5 6 9 8 7 8 9 6 6 7 8 8 7 6 5 6 7 7 7 8 9 7 5 7 9 9 9 9 10 10 9 7 7 8 9 7 6 7 9 9 8 9 10 9 7 9 14 18 19 18 18 23 25 21 17 16 12 7 3 0 3 4 -0 -2 -2
4 4 4 5 7 8 7 6 7 7 9 11 10 7 4 3 4 6 7 6 6 7 8 9 9 8 6 4 4 5 7 10 12 11 9 8 9 9 10 9 5 3 7 13 14 13 13 11 9 9 9 10 11 12 13 11 8 8 9 8 8 10 11 9 7 11 16 19 18 16 18 25 27 19 14 15 13 7 2 2 5 4 -1 -2 -2
6 5 5 4 5 6 6 7 7 8 9 10 10 7 3 2 4 7 8 8 7 7 7 8 9 8 6 5 5 4 6 12 14 14 11 10 10 11 11 10 6 6 12 16 12 10 10 8 7 9 11 13 15 16 14 11 8 9 10 9 9 12 12 8 7 12 17 16 16 17 20 27 27 17 11 13 12 7 3 4 6 4 -2 -2 0
3 4 5 6 6 5 5 5 7 9 10 10 11 9 7 7 8 8 9 9 8 8 8 7 8 8 8 7 5 5 7 10 11 10 7 4 4 5 4 4 7 12 15 11 5 4 5 6 8 10 12 14 15 12 10 9 9 11 11 10 11 13 11 7 7 12 14 14 17 22 25 27 24 15 10 11 10 6 4 4 5 3 -0 -1 0
3 4 6 8 9 9 7 5 5 6 7 8 10 10 9 8 8 9 10 10 8 8 8 8 8 9 9 9 8 8 8 8 8 7 4 2 4 6 4 4 7 9 8 5 5 8 9 9 11 12 12 12 10 8 8 9 10 10 9 9 12 14 10 6 7 10 10 10 16 24 28 26 20 13 10 10 8 5 4 5 4 2 1 0 0
4 5 6 7 9 11 10 7 5 5 4 6 10 11 9 9 11 11 10 9 9 9 9 10 9 8 8 10 11 10 10 10 10 9 7 7 9 9 9 13 14 12 9 8 11 13 11 10 13 15 12 9 10 10 9 9 10 11 10 10 13 14 10 5 6 8 7 7 12 22 27 24 17 12 11 9 6 4 4 5 4 2 1 1 1
4 5 6 7 8 8 7 6 5 5 6 8 11 11 10 11 14 14 10 9 9 7 7 8 7 7 9 9 7 8 11 12 13 14 12 9 10 10 12 14 13 12 11 11 12 11 9 7 9 10 9 10 12 11 7 9 13 14 13 11 12 13 10 4 4 7 8 7 9 16 23 23 16 11 10 8 6 5 5 5 4 3 1 1 2
1 3 5 8 10 10 10 8 7 10 12 13 12 12 12 14 16 15 12 11 9 8 8 8 6 8 8 3 2 12 20 19 18 19 17 13 13 14 13 12 10 10 13 13 11 11 11 9 7 5 4 4 4 3 4 9 13 12 8 5 7 15 17 9 3 5 9 10 9 12 19 22 17 11 9 8 6 5 5 5 5 4 1 0 2
3 5 7 10 11 13 14 12 10 12 15 16 15 15 15 15 14 12 10 9 7 6 5 4 5 9 7 4 12 24 24 19 20 21 17 15 15 13 12 11 11 12 13 12 10 11 11 10 9 8 7 5 3 1 4 10 14 12 6 0 5 18 25 15 3 1 7 10 10 11 16 21 19 12 8 7 6 5 5 5 5 5 2 0 2
12 13 14 13 12 12 13 14 13 14 16 18 17 16 16 14 12 10 8 6 5 5 7 10 15 16 10 11 22 22 9 8 19 20 14 13 13 13 15 14 12 12 10 9 10 11 9 8 6 6 8 11 11 6 5 8 11 8 3 0 4 12 17 13 6 3 4 8 11 11 13 20 23 18 10 7 5 5 5 5 5 5 4 2 2
16 16 16 15 14 13 14 17 18 16 16 16 16 16 15 13 10 7 5 5 8 11 18 25 22 13 9 16 25 19 7 9 15 9 2 6 10 12 15 13 10 10 9 7 9 11 10 9 7 5 6 9 12 11 10 9 9 8 7 5 4 7 13 15 12 7 3 6 12 12 10 14 21 22 16 10 6 5 4 4 4 5 5 5 4
13 15 15 14 15 17 17 19 20 18 17 16 14 14 12 9 7 8 10 16 20 21 26 29 17 3 6 17 18 10 10 18 16 -1 -8 3 14 16 15 12 10 11 11 10 10 12 12 12 12 10 7 6 9 11 9 9 11 11 6 -2 -1 9 18 17 12 8 4 6 11 13 10 10 15 21 22 16 9 6 5 4 3 4 5 6 5
13 14 15 15 17 18 17 17 17 16 15 13 11 11 9 9 13 16 14 15 14 9 9 9 -2 -7 4 13 9 5 12 20 14 -1 -4 7 14 11 5 3 6 10 12 12 11 11 12 12 12 11 10 11 13 11 7 7 11 8 1 -2 5 15 18 13 10 8 6 7 10 11 11 11 12 15 22 22 14 8 6 4 3 3 4 5 6
15 16 16 16 17 17 15 15 14 13 13 12 11 12 11 11 14 14 9 6 4 -2 -7 -11 -14 -6 7 10 7 10 14 12 6 4 8 12 7 -2 -4 0 5 10 13 14 13 12 13 13 13 13 13 15 16 13 10 11 13 12 10 13 16 17 15 13 12 9 6 7 9 9 11 15 14 13 18 22 18 11 7 5 3 2 2 3 5
19 20 20 19 18 17 15 14 13 12 12 12 11 12 12 11 12 13 13 13 12 11 10 8 10 16 18 9 1 3 6 8 9 9 8 4 -4 -5 2 7 9 12 15 14 13 13 14 15 14 12 10 10 11 11 12 14 14 11 10 12 15 17 15 11 8 7 6 6 8 9 11 15 17 15 16 20 21 14 8 6 3 2 2 2 3
20 20 19 17 15 13 12 11 11 11 12 13 14 14 15 15 15 17 19 19 17 15 15 14 15 16 11 5 1 1 2 6 5 -1 -6 -8 -7 -0 7 8 9 15 17 13 10 9 10 13 15 12 9 9 9 9 9 8 5 -1 -2 5 17 20 15 7 5 6 7 6 8 12 15 16 19 18 16 19 21 16 11 9 5 2 2 1 1
16 14 12 10 10 11 12 13 15 16 16 17 17 17 17 17 17 17 17 19 20 20 18 15 13 10 5 3 3 3 2 1 -1 -4 -3 -0 1 3 7 8 12 18 17 11 8 8 7 10 12 12 10 10 11 12 11 8 6 5 9 16 20 14 6 3 4 6 8 8 10 14 17 19 20 18 14 17 21 18 12 9 6 4 3 1 1
11 10 9 11 13 14 16 17 17 18 18 17 17 17 16 15 15 14 14 13 14 17 19 18 17 14 10 8 7 6 5 4 4 5 8 8 6 8 11 14 15 15 12 8 6 6 6 8 10 11 12 13 14 15 13 11 10 13 17 17 14 7 3 6 9 11 11 11 12 14 18 20 20 18 16 18 21 18 13 10 7 5 3 2 2
11 12 13 16 17 17 17 17 16 16 16 15 15 14 14 14 14 13 13 12 12 12 14 15 15 16 15 14 12 11 11 11 10 10 11 11 11 13 14 14 13 10 8 7 6 6 8 9 10 11 14 16 17 16 14 13 15 17 17 13 10 8 6 6 10 12 11 11 11 13 16 18 18 17 18 20 21 18 14 11 8 5 4 4 4
16 17 18 18 17 16 16 15 14 14 13 13 13 12 12 12 12 12 12 12 12 12 11 11 12 12 13 13 12 12 12 12 11 12 12 12 12 12 11 10 10 8 6 7 7 8 9 11 12 14 16 18 20 18 14 14 16 17 15 11 9 7 6 8 11 12 12 13 14 12 13 17 18 18 18 20 21 19 14 11 9 7 5 4 4
18 18 17 16 15 15 14 13 12 12 12 12 12 12 11 11 11 11 12 12 12 12 12 12 11 11 11 11 11 11 10 10 10 11 11 11 11 11 10 8 8 8 8 8 9 9 10 12 13 15 17 20 21 19 15 12 10 6 2 -1 -3 -3 2 8 11 11 13 12 9 9 13 15 16 18 20 18 16 16 14 10 8 7 5 5 5
17 16 15 14 13 13 12 12 12 12 11 11 11 11 11 11 10 10 10 10 10 10 10 10 10 10 10 10 10 9 9 10 9 9 9 9 9 10 11 11 11 11 11 12 12 12 13 14 14 16 19 21 19 16 12 11 11 9 8 10 13 16 18 16 9 7 8 4 0 6 15 13 10 16 22 19 15 14 12 10 9 8 7 7 8
14 14 12 12 11 11 10 10 10 10 10 10 9 9 9 9 10 9 9 9 9 9 9 10 10 11 11 11 12 11 10 10 10 10 10 10 10 10 11 12 13 13 14 15 17 17 17 18 19 19 20 21 21 18 14 13 12 10 8 9 8 9 12 13 8 7 8 5 4 12 16 11 8 13 18 16 14 12 10 9 10 8 5 3 4
12 11 11 11 10 10 10 9 9 9 9 9 9 10 10 10 10 10 10 11 11 10 10 10 10 11 12 13 13 13 13 12 12 11 11 11 12 12 12 13 14 17 19 20 20 20 21 21 22 21 20 20 22 20 15 14 15 12 9 8 5 2 3 6 6 7 9 8 9 13 14 9 7 8 10 12 13 11 10 9 6 2 2 1 2
10 10 10 10 9 9 9 9 9 9 9 9 10 11 11 12 12 12 12 12 12 12 12 11 10 10 11 12 14 15 15 15 15 16 16 16 17 17 18 19 20 22 24 24 23 22 22 23 23 22 20 19 20 19 16 16 19 19 17 18 18 17 14 12 9 8 9 8 6 7 8 7 3 -1 -2 4 6 5 7 9 4 -3 -2 1 8
9 9 9 9 10 10 11 11 11 11 11 11 11 11 11 11 11 11 11 11 10 11 12 13 13 13 13 14 16 18 19 20 21 21 22 22 23 23 23 24 25 25 25 25 23 21 21 21 21 21 21 20 19 20 18 15 15 17 19 22 22 18 14 11 10 10 10 8 6 8 10 10 8 4 0 -0 1 2 3 1 -5 -7 -3 4 16
9 9 9 9 10 11 12 12 13 13 13 13 13 13 13 13 13 13 13 14 14 15 16 18 20 21 20 19 19 19 19 19 19 19 19 21 22 22 22 22 23 23 23 23 20 17 18 18 18 18 20 21 21 24 25 20 14 10 10 15 23 24 19 15 13 14 13 10 9 12 14 12 15 21 18 6 -3 -2 0 -3 -6 -1 5 11 22
10 10 10 10 10 10 10 11 11 12 13 14 15 16 16 17 18 18 19 19 20 21 21 21 21 21 21 20 20 19 19 19 19 19 19 19 18 17 17 17 17 19 20 20 18 15 13 15 16 15 14 14 15 20 24 26 27 25 17 9 10 16 22 20 14 11 13 14 12 12 11 7 9 20 27 19 3 -5 -4 -1 4 7 9 16 26
11 11 11 12 12 13 14 14 15 16 17 18 19 19 19 19 19 20 21 22 22 23 22 22 21 20 20 21 21 20 20 20 20 20 20 20 19 19 19 18 18 17 16 16 17 15 14 15 15 14 12 12 11 11 13 15 21 29 30 21 10 6 12 19 19 17 17 15 8 3 4 5 5 9 17 22 18 9 5 8 9 6 7 20 30
13 14 16 18 19 20 20 20 21 21 21 22 22 22 21 21 21 20 19 19 19 18 18 18 19 19 18 18 18 17 17 17 18 18 18 18 18 19 19 19 19 18 17 16 16 16 15 14 14 14 14 13 12 13 15 14 12 14 19 20 16 10 6 8 14 20 22 20 15 9 9 12 12 8 8 11 12 9 6 6 4 2 11 26 30
18 19 20 20 20 20 20 20 20 21 20 20 19 18 18 19 19 19 19 18 17 16 15 13 12 12 13 14 15 15 14 14 15 15 14 13 12 14 15 15 15 16 16 16 16 16 15 14 14 14 13 13 13 13 13 13 14 14 13 13 16 17 14 11 11 12 14 16 19 21 21 17 11 8 11 12 10 9 9 5 1 7 23 33 24
19 19 18 17 17 17 18 18 18 17 15 12 10 8 8 9 10 13 15 17 18 18 17 15 13 11 10 11 14 15 15 16 17 17 16 14 12 12 13 13 13 14 15 16 17 17 16 16 16 15 14 14 14 14 13 12 12 14 13 11 9 10 12 14 15 12 10 9 10 13 17 18 13 10 10 9 8 10 13 8 7 20 35 30 13
16 15 14 14 13 12 11 10 10 9 7 4 2 2 3 6 10 12 13 14 16 17 18 18 18 15 11 10 13 16 16 14 14 15 16 15 11 8 9 10 11 12 14 16 17 17 17 17 18 20 20 18 14 10 9 9 8 9 14 20 22 19 16 13 12 11 11 11 10 10 12 14 14 14 14 11 8 10 9 8 15 30 33 19 5
Height
5787 5786 5785 5784 5782 5781 5780 5779 5777 5776 5775 5774 5773 5772 5771 5770 5769 5767 5766 5765 5763 5762 5761 5760 5759 5759 5758 5756 5755 5754 5753 5752 5751 5750 5749 5748 5747 5746 5745 5745 5744 5743 5742 5741 5740 5739 5738 5737 5736 5736 5735 5734 5733 5732 5731 5730 5729 5728 5728 5727 5726 5725 5724 5723 5721 5720 5718 5717 5716 5716 5716 5716 5716 5716 5716 5717 5717 5718 5718 5718 5719 5720 5720 5720 5721
5786 5785 5784 5783 5781 5780 5779 5778 5777 5776 5774 5773 5772 5771 5770 5769 5767 5766 5765 5764 5763 5761 5760 5759 5758 5757 5756 5755 5754 5752 5751 5750 5749 5748 5747 5746 5745 5744 5743 5742 5741 5741 5740 5739 5738 5737 5736 5735 5734 5733 5732 5731 5730 5729 5729 5728 5727 5726 5725 5724 5723 5723 5722 5721 5720 5718 5717 5715 5714 5713 5712 5712 5712 5712 5712 5713 5713 5714 5715 5715 5715 5716 5717 5717 5717
5785 5784 5783 5781 5780 5779 5778 5777 5776 5775 5774 5772 5771 5770 5768 5767 5766 5765 5763 5762 5761 5760 5759 5758 5757 5755 5754 5753 5752 5751 5750 5748 5747 5746 5745 5744 5743 5741 5740 5739 5739 5738 5737 5736 5735 5734 5733 5732 5731 5730 5729 5729 5728 5727 5726 5725 5724 5723 5722 5721 5721 5720 5719 5718 5717 5716 5715 5713 5712 5710 5709 5709 5709 5709 5709 5709 5709 5710 5711 5711 5712 5712 5713 5713 5713
5783 5782 5781 5780 5778 5777 5776 5775 5774 5773 5772 5771 5770 5768 5767 5765 5764 5763 5762 5760 5759 5758 5757 5756 5755 5754 5752 5751 5750 5749 5748 5746 5745 5744 5743 5742 5740 5739 5738 5737 5736 5735 5734 5733 5733 5732 5731 5730 5729 5728 5727 5726 5725 5724 5724 5723 5722 5721 5720 5719 5718 5717 5716 5716 5715 5714 5713 5712 5710 5709 5707 5706 5705 5705 5705 5706 5706 5706 5707 5707 5708 5708 5709 5709 5710
5782 5780 5779 5778 5776 5775 5774 5773 5772 5771 5770 5769 5767 5766 5765 5764 5762 5761 5759 5758 5757 5756 5755 5754 5752 5751 5750 5749 5748 5746 5745 5744 5743 5742 5740 5739 5738 5737 5736 5735 5734 5733 5732 5731 5730 5729 5728 5727 5726 5726 5725 5724 5723 5722 5721 5720 5720 5719 5718 5717 5716 5715 5714 5713 5712 5711 5711 5710 5709 5707 5706 5704 5703 5702 5702 5702 5702 5703 5703 5703 5703 5704 5704 5705 5706
5780 5779 5778 5776 5775 5773 5772 5771 5770 5769 5767 5766 5765 5764 5763 5761 5760 5759 5757 5756 5755 5754 5752 5751 5750 5749 5748 5746 5745 5744 5743 5742 5741 5739 5738 5737 5735 5734 5733 5732 5731 5730 5729 5728 5727 5726 5725 5725 5724 5723 5722 5721 5720 5719 5719 5718 5717 5716 5715 5714 5713 5712 5711 5710 5709 5709 5708 5707 5706 5705 5704 5702 5701 5700 5699 5699 5699 5699 5699 5699 5700 5700 5700 5700 5701
5779 5778 5776 5775 5773 5772 5770 5769 5768 5767 5765 5764 5763 5761 5760 5759 5757 5756 5755 5753 5752 5751 5750 5749 5747 5746 5745 5744 5742 5741 5740 5739 5738 5737 5735 5734 5732 5731 5730 5729 5728 5728 5727 5725 5724 5724 5723 5722 5721 5721 5720 5719 5718 5717 5716 5716 5715 5714 5713 5712 5711 5710 5709 5707 5707 5706 5705 5705 5704 5703 5702 5701 5699 5698 5697 5696 5695 5695 5695 5695 5696 5696 5696 5696 5696
5778 5776 5775 5773 5772 5770 5769 5768 5766 5765 5764 5762 5761 5760 5758 5757 5755 5754 5752 5751 5750 5749 5747 5746 5745 5743 5742 5741 5740 5738 5737 5736 5735 5733 5732 5731 5729 5728 5727 5727 5726 5725 5724 5723 5722 5721 5721 5720 5719 5718 5717 5716 5716 5715 5714 5713 5712 5711 5710 5709 5708 5707 5706 5705 5704 5703 5702 5701 5701 5700 5699 5698 5697 5696 5695 5694 5693 5692 5692 5692 5691 5691 5692 5691 5692
5776 5775 5773 5772 5770 5769 5768 5766 5765 5763 5762 5760 5759 5758 5756 5755 5753 5752 5750 5749 5747 5746 5745 5743 5742 5741 5739 5738 5737 5736 5735 5733 5732 5730 5729 5728 5727 5726 5725 5724 5724 5723 5722 5721 5720 5719 5718 5717 5717 5716 5715 5714 5713 5712 5711 5710 5709 5708 5707 5706 5705 5704 5703 5702 5701 5700 5699 5698 5697 5697 5696 5695 5694 5693 5692 5691 5690 5689 5689 5689 5688 5688 5687 5687 5687
5775 5773 5772 5770 5769 5767 5766 5765 5763 5762 5760 5759 5757 5755 5754 5753 5751 5750 5748 5747 5745 5744 5742 5741 5739 5738 5736 5735 5734 5733 5732 5731 5729 5728 5726 5725 5724 5723 5723 5722 5721 5720 5719 5718 5717 5716 5715 5715 5714 5713 5712 5711 5710 5709 5708 5707 5706 5705 5703 5702 5701 5700 5699 5698 5697 5696 5695 5695 5694 5693 5693 5692 5691 5691 5690 5688 5688 5687 5686 5685 5685 5685 5684 5683 5682
5773 5772 5771 5769 5768 5766 5765 5763 5762 5760 5759 5757 5755 5753 5752 5750 5749 5748 5746 5744 5743 5741 5739 5738 5736 5734 5733 5731 5730 5729 5729 5728 5727 5725 5724 5723 5722 5721 5720 5719 5719 5718 5717 5716 5715 5714 5713 5712 5711 5710 5709 5708 5707 5706 5705 5704 5702 5701 5700 5699 5698 5696 5695 5694 5693 5692 5692 5691 5690 5689 5689 5688 5687 5687 5686 5685 5684 5684 5683 5682 5682 5681 5680 5680 5678
5772 5770 5769 5767 5766 5765 5763 5761 5760 5758 5757 5755 5753 5751 5749 5748 5746 5745 5744 5742 5740 5739 5737 5735 5733 5732 5730 5728 5727 5725 5725 5725 5724 5723 5722 5721 5720 5719 5718 5717 5716 5715 5714 5714 5712 5711 5710 5709 5708 5707 5706 5705 5704 5703 5702 5700 5699 5698 5696 5695 5694 5693 5691 5690 5689 5688 5687 5686 5685 5685 5685 5684 5683 5683 5682 5682 5681 5680 5679 5679 5678 5677 5676 5675 5674
5770 5768 5767 5766 5764 5763 5761 5759 5757 5755 5754 5752 5750 5749 5747 5745 5744 5742 5741 5739 5738 5736 5734 5733 5731 5729 5727 5726 5724 5722 5721 5721 5720 5720 5719 5718 5717 5716 5715 5714 5713 5712 5711 5711 5710 5708 5707 5706 5704 5703 5703 5701 5700 5699 5698 5697 5695 5694 5693 5691 5690 5689 5687 5686 5685 5683 5682 5681 5681 5680 5679 5679 5679 5678 5678 5677 5676 5676 5675 5674 5674 5673 5672 5671 5669
5767 5766 5765 5763 5762 5760 5759 5757 5755 5752 5751 5749 5747 5746 5744 5743 5741 5740 5738 5737 5735 5733 5732 5730 5728 5727 5725 5723 5722 5720 5718 5717 5717 5716 5716 5715 5714 5713 5712 5711 5710 5709 5708 5707 5706 5705 5704 5702 5701 5699 5699 5697 5696 5695 5694 5692 5691 5690 5688 5687 5686 5684 5683 5682 5681 5679 5678 5676 5675 5674 5674 5674 5673 5673 5672 5672 5672 5671 5671 5670 5669 5668 5667 5666 5664
5765 5763 5762 5760 5759 5757 5756 5754 5752 5750 5748 5746 5744 5743 5741 5740 5738 5737 5736 5734 5733 5731 5729 5727 5726 5724 5722 5721 5720 5718 5716 5715 5714 5713 5712 5711 5711 5710 5709 5708 5707 5706 5705 5703 5703 5702 5700 5699 5697 5695 5694 5693 5692 5691 5689 5688 5687 5685 5684 5682 5681 5679 5678 5677 5676 5675 5673 5672 5670 5669 5669 5668 5668 5667 5667 5667 5667 5667 5666 5665 5665 5664 5663 5661 5660
5761 5760 5759 5757 5756 5754 5753 5751 5750 5747 5745 5743 5741 5739 5738 5736 5735 5733 5732 5731 5729 5728 5726 5724 5723 5721 5719 5718 5717 5715 5713 5712 5710 5709 5708 5707 5706 5705 5705 5704 5703 5702 5700 5699 5699 5698 5696 5695 5693 5691 5689 5688 5687 5686 5685 5684 5682 5681 5679 5677 5676 5674 5673 5672 5671 5669 5668 5667 5665 5664 5663 5663 5662 5662 5662 5662 5662 5662 5661 5660 5660 5659 5658 5657 5655
5758 5757 5755 5754 5753 5751 5749 5747 5746 5744 5742 5740 5738 5736 5734 5733 5731 5729 5728 5726 5725 5723 5722 5721 5719 5718 5716 5714 5713 5712 5710 5708 5706 5705 5704 5703 5702 5701 5700 5699 5698 5696 5695 5694 5693 5693 5691 5690 5688 5686 5685 5683 5682 5681 5680 5679 5678 5676 5674 5673 5671 5669 5668 5666 5665 5664 5662 5661 5660 5659 5658 5657 5657 5656 5656 5656 5656 5657 5656 5655 5655 5654 5653 5652 5650
5755 5753 5752 5751 5749 5747 5745 5743 5741 5740 5738 5736 5734 5732 5731 5729 5727 5725 5723 5722 5721 5719 5717 5716 5715 5713 5712 5710 5708 5707 5706 5704 5702 5701 5699 5698 5697 5696 5695 5694 5693 5691 5689 5688 5687 5686 5685 5684 5683 5681 5680 5678 5677 5676 5675 5674 5673 5671 5670 5668 5666 5665 5663 5661 5660 5658 5656 5655 5654 5653 5652 5651 5651 5650 5650 5651 5651 5651 5651 5651 5650 5650 5648 5647 5646
5752 5750 5749 5747 5746 5744 5742 5739 5737 5735 5733 5732 5730 5728 5726 5725 5723 5721 5719 5717 5716 5714 5713 5711 5709 5708 5706 5705 5703 5702 5701 5699 5697 5696 5694 5692 5691 5690 5689 5688 5688 5686 5684 5682 5681 5680 5679 5678 5676 5675 5674 5673 5672 5670 5669 5668 5668 5666 5665 5663 5662 5660 5658 5657 5655 5652 5651 5649 5648 5647 5646 5646 5645 5645 5645 5645 5646 5646 5646 5646 5646 5645 5644 5642 5641
5749 5747 5745 5744 5742 5740 5738 5735 5733 5731 5729 5727 5725 5723 5722 5720 5719 5717 5715 5713 5711 5709 5708 5706 5705 5703 5701 5699 5698 5697 5695 5694 5692 5690 5689 5687 5685 5684 5683 5682 5682 5680 5678 5677 5676 5674 5673 5672 5670 5669 5668 5667 5666 5664 5663 5663 5662 5661 5660 5658 5656 5655 5653 5652 5649 5647 5645 5644 5642 5641 5641 5640 5640 5640 5640 5640 5641 5641 5642 5641 5641 5640 5639 5638 5635
5745 5743 5741 5739 5737 5735 5733 5731 5729 5727 5725 5723 5721 5719 5717 5715 5714 5712 5710 5708 5706 5705 5703 5701 5700 5698 5696 5694 5692 5691 5689 5688 5687 5685 5684 5682 5680 5678 5677 5677 5675 5674 5673 5671 5670 5669 5668 5666 5665 5663 5662 5661 5660 5659 5658 5657 5656 5656 5654 5653 5651 5650 5649 5647 5644 5642 5640 5639 5637 5636 5635 5634 5635 5635 5635 5636 5636 5636 5637 5637 5636 5635 5634 5633 5630
5740 5738 5736 5734 5732 5730 5728 5726 5724 5722 5720 5718 5716 5714 5712 5710 5708 5707 5705 5703 5702 5700 5698 5696 5695 5693 5691 5689 5687 5685 5684 5682 5681 5680 5678 5677 5675 5673 5671 5670 5670 5669 5667 5665 5663 5663 5663 5661 5660 5658 5656 5656 5655 5654 5652 5651 5651 5650 5649 5648 5646 5645 5644 5642 5640 5638 5636 5634 5633 5631 5629 5629 5629 5630 5630 5631 5631 5632 5632 5632 5631 5630 5629 5628 5626
5734 5732 5730 5728 5726 5724 5722 5720 5718 5716 5714 5712 5711 5709 5707 5705 5703 5701 5700 5698 5696 5695 5693 5691 5689 5688 5686 5684 5682 5680 5678 5676 5674 5673 5672 5670 5668 5667 5665 5664 5664 5663 5662 5660 5659 5658 5657 5656 5654 5652 5651 5650 5649 5648 5647 5646 5645 5645 5644 5642 5641 5640 5639 5638 5635 5633 5632 5630 5629 5626 5625 5624 5625 5625 5626 5626 5626 5626 5627 5626 5626 5626 5624 5623 5621
5727 5725 5723 5721 5719 5718 5716 5713 5711 5710 5708 5706 5704 5703 5701 5699 5697 5695 5694 5692 5690 5689 5687 5686 5684 5682 5680 5679 5677 5674 5672 5670 5668 5666 5665 5663 5661 5660 5658 5658 5658 5658 5657 5655 5654 5652 5651 5649 5648 5647 5645 5645 5644 5643 5642 5641 5640 5639 5638 5637 5636 5635 5634 5633 5631 5630 5628 5626 5625 5623 5621 5620 5620 5621 5621 5621 5621 5621 5621 5621 5621 5621 5619 5618 5616
5720 5718 5716 5714 5712 5711 5708 5705 5704 5703 5701 5699 5697 5695 5693 5692 5691 5688 5687 5685 5683 5682 5681 5680 5678 5676 5674 5672 5671 5668 5666 5664 5662 5660 5658 5656 5654 5653 5652 5651 5651 5652 5651 5649 5647 5646 5644 5643 5642 5641 5640 5639 5638 5638 5637 5636 5634 5634 5632 5632 5631 5630 5629 5628 5627 5626 5624 5622 5620 5619 5617 5616 5616 5617 5617 5617 5617 5617 5616 5616 5616 5616 5614 5613 5611
5713 5711 5709 5707 5705 5704 5701 5698 5696 5695 5694 5692 5690 5688 5686 5685 5683 5681 5680 5678 5677 5675 5674 5673 5672 5670 5668 5666 5665 5662 5660 5658 5656 5654 5652 5650 5649 5647 5646 5645 5645 5645 5644 5643 5641 5640 5638 5637 5636 5634 5633 5633 5633 5633 5632 5631 5629 5628 5627 5626 5625 5624 5623 5622 5622 5621 5620 5618 5616 5615 5613 5612 5612 5612 5612 5613 5613 5612 5612 5612 5611 5610 5610 5608 5606
5707 5704 5702 5700 5698 5697 5695 5691 5688 5687 5687 5685 5683 5681 5679 5678 5676 5674 5673 5672 5670 5669 5667 5666 5664 5662 5661 5660 5658 5656 5653 5651 5650 5648 5646 5645 5644 5642 5641 5639 5638 5638 5637 5636 5635 5633 5632 5632 5631 5629 5627 5627 5627 5627 5626 5625 5623 5622 5621 5620 5619 5619 5618 5617 5616 5616 5615 5613 5611 5610 5609 5608 5607 5607 5607 5608 5608 5607 5607 5607 5606 5605 5605 5604 5602
5700 5697 5694 5692 5690 5689 5688 5685 5681 5679 5679 5678 5676 5674 5672 5670 5669 5667 5666 5665 5663 5661 5660 5658 5656 5655 5653 5652 5651 5649 5648 5646 5644 5642 5640 5639 5638 5637 5636 5634 5632 5631 5631 5630 5629 5627 5627 5626 5625 5623 5622 5622 5620 5620 5620 5619 5617 5616 5615 5614 5614 5613 5612 5612 5611 5610 5609 5608 5606 5606 5604 5603 5602 5602 5602 5602 5602 5602 5602 5602 5601 5600 5600 5599 5597
5693 5690 5688 5685 5683 5681 5680 5678 5675 5672 5670 5669 5668 5667 5665 5664 5661 5659 5659 5658 5656 5654 5652 5650 5648 5647 5646 5645 5644 5643 5642 5640 5638 5636 5635 5634 5632 5631 5630 5629 5627 5625 5624 5624 5623 5622 5622 5620 5618 5617 5617 5615 5613 5613 5613 5612 5611 5610 5609 5608 5608 5607 5607 5606 5605 5604 5603 5602 5601 5601 5600 5598 5597 5596 5596 5596 5597 5596 5596 5597 5596 5595 5595 5594 5592
5686 5683 5680 5678 5676 5673 5671 5670 5668 5666 5664 5662 5661 5659 5658 5657 5655 5653 5652 5651 5648 5646 5644 5642 5640 5639 5639 5638 5637 5636 5635 5634 5632 5631 5629 5627 5626 5625 5624 5623 5621 5620 5618 5617 5616 5616 5615 5614 5612 5611 5610 5609 5609 5608 5607 5605 5604 5604 5603 5602 5602 5601 5601 5600 5599 5598 5597 5596 5596 5595 5594 5593 5592 5591 5590 5591 5591 5591 5591 5591 5591 5590 5589 5588 5587
5677 5675 5673 5670 5668 5666 5663 5661 5660 5659 5657 5655 5654 5652 5651 5650 5649 5647 5645 5644 5642 5640 5637 5635 5633 5632 5632 5631 5630 5629 5628 5627 5625 5624 5623 5621 5620 5619 5618 5617 5615 5614 5612 5610 5609 5609 5608 5607 5605 5604 5604 5604 5603 5603 5601 5599 5598 5598 5597 5596 5596 5595 5595 5594 5593 5592 5591 5591 5590 5589 5588 5587 5586 5585 5584 5585 5585 5585 5585 5585 5586 5585 5584 5583 5582
5669 5667 5665 5662 5660 5658 5656 5654 5653 5651 5650 5648 5647 5645 5644 5644 5643 5641 5637 5636 5636 5635 5632 5629 5627 5626 5625 5625 5623 5623 5621 5620 5618 5617 5616 5615 5614 5613 5612 5611 5609 5608 5606 5604 5603 5602 5601 5600 5599 5599 5598 5597 5595 5595 5594 5592 5591 5591 5591 5590 5590 5589 5588 5587 5586 5586 5585 5585 5584 5583 5582 5581 5580 5579 5579 5578 5578 5579 5579 5580 5580 5580 5579 5578 5577
5661 5659 5657 5655 5653 5651 5649 5648 5646 5644 5642 5641 5639 5638 5636 5636 5636 5634 5631 5629 5628 5627 5625 5623 5621 5619 5618 5617 5615 5615 5614 5613 5611 5609 5608 5607 5607 5606 5605 5604 5602 5601 5599 5598 5597 5596 5595 5594 5593 5592 5591 5589 5587 5587 5586 5585 5585 5585 5585 5584 5584 5583 5582 5580 5580 5579 5579 5579 5578 5577 5576 5575 5574 5573 5573 5572 5572 5572 5573 5574 5574 5574 5574 5573 5572
5652 5651 5649 5647 5646 5644 5642 5641 5639 5636 5634 5632 5631 5629 5628 5626 5626 5625 5624 5622 5620 5618 5617 5615 5614 5612 5610 5609 5608 5607 5606 5605 5603 5601 5599 5599 5598 5598 5597 5596 5595 5594 5593 5591 5590 5589 5588 5587 5586 5585 5583 5582 5581 5580 5580 5579 5579 5579 5578 5578 5577 5577 5575 5574 5574 5573 5573 5572 5571 5571 5570 5569 5568 5567 5567 5566 5566 5566 5567 5567 5568 5568 5569 5568 5568
5645 5643 5641 5640 5638 5636 5634 5633 5631 5628 5626 5624 5622 5621 5620 5618 5617 5616 5615 5614 5613 5611 5609 5607 5606 5604 5603 5602 5601 5600 5598 5597 5595 5593 5592 5591 5590 5589 5588 5587 5586 5586 5585 5584 5582 5582 5581 5580 5578 5577 5576 5574 5574 5574 5573 5573 5572 5572 5572 5571 5571 5570 5569 5569 5568 5567 5566 5565 5565 5564 5563 5562 5561 5561 5560 5560 5560 5560 5561 5561 5562 5563 5563 5563 5563
5638 5636 5634 5632 5630 5628 5625 5623 5622 5620 5618 5616 5615 5613 5612 5610 5609 5608 5607 5605 5605 5604 5602 5600 5598 5596 5594 5593 5593 5592 5590 5588 5587 5586 5584 5583 5582 5581 5580 5579 5578 5577 5576 5575 5574 5574 5573 5572 5571 5570 5569 5568 5567 5567 5566 5565 5565 5565 5564 5564 5564 5564 5563 5563 5561 5560 5560 5560 5559 5558 5557 5556 5555 5554 5554 5554 5554 5555 5555 5556 5557 5557 5558 5558 5557
5630 5628 5626 5624 5622 5619 5617 5615 5613 5611 5609 5608 5607 5606 5604 5603 5602 5600 5599 5598 5597 5596 5594 5593 5591 5589 5587 5585 5584 5584 5582 5580 5579 5577 5575 5574 5574 5573 5572 5570 5569 5569 5568 5567 5566 5566 5565 5564 5563 5562 5561 5561 5560 5559 5558 5558 5558 5558 5557 5557 5557 5557 5557 5556 5555 5554 5554 5553 5553 5551 5550 5550 5549 5548 5548 5549 5549 5550 5550 5551 5551 5552 5552 5552 5552
5623 5621 5619 5616 5614 5612 5610 5608 5606 5604 5602 5600 5599 5597 5596 5595 5594 5592 5591 5590 5589 5588 5586 5585 5583 5582 5580 5578 5577 5576 5574 5573 5571 5569 5567 5566 5565 5564 5563 5562 5561 5560 5559 5558 5557 5557 5557 5556 5554 5553 5553 5552 5552 5551 5550 5550 5551 5551 5550 5550 5550 5551 5551 5550 5549 5548 5548 5547 5547 5546 5545 5544 5543 5543 5543 5543 5544 5544 5545 5545 5546 5547 5547 5547 5547
5615 5613 5611 5609 5606 5604 5602 5600 5599 5597 5595 5594 5592 5590 5588 5587 5585 5584 5583 5582 5580 5579 5578 5576 5574 5573 5571 5570 5569 5568 5566 5565 5563 5561 5559 5558 5556 5555 5554 5553 5551 5550 5550 5549 5548 5547 5547 5547 5545 5544 5544 5544 5543 5542 5542 5542 5543 5543 5543 5543 5544 5544 5544 5543 5542 5542 5542 5541 5541 5540 5540 5539 5538 5537 5537 5538 5539 5539 5539 5540 5541 5542 5542 5542 5541
5608 5605 5603 5601 5599 5597 5595 5593 5592 5590 5589 5587 5585 5583 5582 5580 5578 5577 5575 5574 5572 5571 5569 5568 5566 5564 5562 5561 5560 5559 5557 5556 5554 5552 5551 5549 5548 5546 5544 5543 5542 5541 5540 5539 5538 5538 5537 5537 5536 5535 5535 5535 5535 5534 5533 5534 5535 5535 5535 5536 5537 5537 5537 5536 5536 5535 5535 5536 5535 5535 5535 5534 5533 5532 5532 5533 5533 5534 5534 5535 5536 5536 5536 5536 5535
5601 5598 5596 5594 5592 5590 5588 5587 5585 5583 5582 5580 5578 5576 5574 5573 5571 5569 5568 5566 5565 5563 5561 5559 5557 5555 5553 5551 5550 5549 5548 5546 5544 5543 5541 5540 5539 5537 5536 5534 5533 5532 5531 5530 5529 5528 5528 5527 5527 5526 5526 5526 5526 5526 5526 5526 5527 5527 5527 5529 5531 5530 5528 5528 5529 5529 5528 5529 5530 5530 5529 5528 5528 5527 5528 5528 5528 5529 5529 5530 5531 5531 5531 5530 5530
5594 5592 5590 5588 5586 5584 5582 5580 5578 5576 5574 5573 5571 5569 5567 5565 5563 5561 5560 5558 5556 5554 5552 5550 5548 5546 5544 5541 5540 5538 5537 5536 5534 5533 5531 5530 5529 5528 5526 5525 5524 5523 5522 5520 5519 5518 5518 5518 5517 5516 5516 5516 5517 5517 5517 5517 5518 5518 5518 5521 5523 5522 5520 5521 5522 5522 5522 5522 5523 5524 5524 5523 5522 5522 5523 5523 5523 5524 5524 5525 5525 5526 5526 5525 5525
5588 5586 5584 5581 5579 5577 5575 5573 5571 5569 5567 5565 5563 5561 5558 5556 5554 5552 5550 5549 5547 5545 5543 5541 5539 5537 5535 5532 5530 5529 5527 5525 5524 5523 5521 5520 5519 5518 5516 5515 5514 5513 5512 5511 5510 5509 5509 5509 5508 5507 5507 5507 5507 5508 5509 5509 5510 5510 5511 5512 5513 5513 5513 5514 5515 5516 5516 5516 5517 5517 5517 5517 5517 5517 5518 5518 5519 5519 5519 5520 5520 5520 5520 5520 5519
5581 5579 5577 5574 5572 5569 5567 5565 5563 5561 5559 5557 5554 5552 5550 5548 5545 5543 5541 5539 5537 5535 5533 5531 5530 5528 5526 5524 5522 5520 5518 5516 5515 5513 5512 5510 5509 5508 5507 5506 5505 5504 5503 5502 5501 5500 5500 5500 5500 5500 5499 5499 5499 5499 5501 5502 5502 5503 5504 5504 5503 5505 5506 5507 5507 5508 5509 5509 5510 5511 5510 5510 5511 5512 5513 5513 5513 5513 5514 5514 5515 5515 5515 5514 5514
5575 5572 5570 5567 5565 5562 5560 5557 5555 5553 5550 5548 5546 5544 5541 5539 5537 5534 5532 5530 5528 5526 5524 5522 5520 5518 5517 5515 5513 5511 5509 5507 5506 5504 5503 5501 5500 5499 5499 5498 5497 5496 5495 5494 5494 5493 5492 5492 5492 5492 5492 5492 5492 5492 5493 5494 5494 5495 5496 5496 5496 5497 5498 5499 5500 5501 5502 5502 5503 5504 5504 5504 5505 5507 5507 5506 5506 5507 5508 5509 5509 5509 5509 5509 5508
5568 5565 5563 5560 5558 5555 5553 5550 5547 5545 5542 5540 5538 5536 5533 5530 5528 5525 5523 5521 5519 5517 5515 5514 5512 5510 5508 5506 5505 5503 5501 5500 5498 5496 5495 5494 5492 5491 5491 5490 5489 5489 5488 5487 5486 5486 5485 5485 5485 5485 5486 5486 5485 5485 5486 5486 5487 5487 5488 5489 5490 5491 5492 5492 5493 5494 5496 5496 5496 5497 5498 5498 5499 5500 5501 5501 5501 5501 5503 5504 5504 5504 5503 5503 5503
5561 5558 5555 5553 5550 5548 5545 5542 5540 5537 5535 5532 5530 5527 5525 5522 5520 5517 5515 5513 5511 5509 5507 5506 5504 5502 5500 5499 5497 5496 5494 5493 5491 5489 5488 5487 5485 5484 5484 5483 5482 5482 5481 5480 5479 5478 5478 5478 5478 5478 5479 5479 5479 5479 5480 5480 5480 5481 5482 5483 5484 5484 5485 5485 5486 5487 5488 5489 5489 5490 5491 5492 5493 5494 5495 5495 5496 5497 5497 5498 5498 5498 5498 5498 5498
5554 5551 5548 5545 5543 5540 5537 5535 5532 5529 5527 5525 5522 5519 5516 5514 5512 5510 5507 5506 5504 5502 5500 5499 5497 5495 5493 5492 5490 5489 5487 5486 5485 5483 5482 5481 5479 5478 5477 5476 5475 5474 5474 5473 5472 5471 5471 5470 5470 5471 5471 5472 5472 5473 5473 5473 5474 5475 5475 5476 5477 5478 5478 5478 5479 5479 5480 5481 5482 5483 5484 5485 5486 5487 5488 5489 5490 5491 5492 5492 5493 5493 5492 5493 5493
5546 5544 5541 5538 5536 5533 5530 5528 5525 5522 5520 5517 5515 5512 5509 5507 5505 5502 5500 5499 5497 5495 5494 5492 5491 5489 5487 5486 5484 5483 5481 5480 5479 5477 5476 5475 5474 5473 5471 5470 5469 5468 5467 5466 5465 5465 5464 5464 5464 5464 5464 5465 5465 5466 5467 5467 5468 5469 5469 5469 5469 5470 5471 5472 5472 5473 5474 5475 5475 5476 5477 5479 5480 5481 5482 5483 5485 5486 5486 5487 5487 5487 5487 5488 5489
5540 5537 5534 5532 5529 5527 5524 5521 5519 5516 5513 5511 5508 5506 5503 5501 5498 5496 5494 5492 5491 5489 5487 5485 5484 5482 5480 5479 5478 5476 5475 5473 5472 5471 5470 5469 5468 5467 5466 5464 5463 5462 5461 5460 5459 5459 5458 5457 5457 5457 5457 5458 5459 5460 5460 5461 5462 5462 5462 5463 5463 5464 5465 5465 5466 5466 5467 5468 5469 5470 5471 5472 5473 5475 5476 5477 5479 5480 5481 5481 5482 5482 5482 5483 5484
5534 5531 5529 5526 5523 5520 5518 5515 5512 5510 5507 5504 5502 5500 5497 5495 5492 5490 5488 5486 5484 5482 5480 5478 5477 5475 5474 5472 5471 5470 5468 5467 5466 5465 5464 5463 5462 5461 5460 5459 5458 5456 5455 5455 5454 5453 5452 5451 5451 5451 5451 5451 5452 5453 5454 5454 5455 5455 5456 5456 5457 5458 5458 5459 5459 5460 5461 5462 5463 5464 5465 5466 5467 5468 5470 5471 5473 5474 5475 5475 5476 5477 5478 5479 5480